Valladolid Airport, Spain

11:52 AM CEST on June 26, 2017 (GMT +0200)
Villanubla

Weather History for LEVD - October, 2011

Change the Weather History Date:

Thursday, October 6, 2011

  Actual Average Record
Temperature  
Mean Temperature 63 °F -  
Max Temperature 78 °F - - ()
Min Temperature 48 °F - - ()
Degree Days  
Heating Degree Days 2    
Growing Degree Days 13 (Base 50)    
Moisture  
Dew Point 41 °F    
Average Humidity 41    
Maximum Humidity 77    
Minimum Humidity 24    
Precipitation  
Precipitation 0.00 in - - ()
Sea Level Pressure  
Sea Level Pressure 30.26 in    
Wind  
Wind Speed 5 mph ()    
Max Wind Speed 18 mph    
Max Gust Speed 18 mph    
Visibility 6.2 miles    
Events      
T = Trace of Precipitation, MM = Missing Value Source: Averaged Metar Reports

Daily Weather History Graph

Daily Weather History Graph

Search for Another Location

Airport or City:

Trip Planner

Search our weather history database for the weather conditions in past years. The results will help you decide how hot, cold, wet, or windy it might be!

Date:

Astronomy

Oct. 06, 2011 Rise Set
Actual Time 8:21 AM CEST 7:53 PM CEST
Civil Twilight 7:53 AM CEST 8:21 PM CEST
Nautical Twilight 7:21 AM CEST 8:53 PM CEST
Astronomical Twilight 6:48 AM CEST 9:25 PM CEST
Moon 5:03 PM CEST (10/6) 2:50 AM CEST (10/6)
Length of Visible Light 12h 27m
Length of Day
11h 32m
Waxing Gibbous, 73% of the Moon is Illuminated
Oct 6
Waxing Gibbous
Oct 12
Full
Oct 20
Last Quarter
Oct 26
New
Nov 2
First Quarter

Hourly Weather History & Observations

Time (CEST) Temp. Dew Point Humidity Pressure Visibility Wind Dir Wind Speed Gust Speed Precip Events Conditions
6:00 AM 53.6 °F 41.0 °F 62% 30.27 in - East 2.3 mph - N/A   Clear
6:30 AM 48.2 °F 39.2 °F 71% 30.27 in - North 4.6 mph - N/A   Clear
7:00 AM 48.2 °F 37.4 °F 66% 30.27 in - NNE 3.5 mph - N/A   Clear
7:30 AM 48.2 °F 37.4 °F 66% 30.30 in - North 5.8 mph - N/A   Clear
8:00 AM 50.0 °F 39.2 °F 66% 30.30 in - NNE 3.5 mph - N/A   Clear
8:30 AM 51.8 °F 39.2 °F 62% 30.30 in - Calm Calm - N/A   Clear
9:00 AM 51.8 °F 39.2 °F 62% 30.30 in - North 1.2 mph - N/A   Clear
9:30 AM 59.0 °F 41.0 °F 51% 30.30 in - Calm Calm - N/A   Clear
10:00 AM 66.2 °F 35.6 °F 32% 30.30 in - Calm Calm - N/A   Clear
10:30 AM 68.0 °F 35.6 °F 30% 30.30 in - Variable 2.3 mph - N/A   Clear
11:00 AM 68.0 °F 37.4 °F 33% 30.30 in - Variable 2.3 mph - N/A   Clear
11:30 AM 71.6 °F 37.4 °F 29% 30.33 in - Calm Calm - N/A   Clear
12:00 PM 73.4 °F 37.4 °F 27% 30.30 in - Variable 2.3 mph - N/A   Clear
12:30 PM 75.2 °F 37.4 °F 25% 30.30 in - West 4.6 mph - N/A   Clear
1:00 PM 75.2 °F 37.4 °F 25% 30.30 in - West 5.8 mph - N/A   Clear
1:30 PM 77.0 °F 39.2 °F 26% 30.30 in - West 3.5 mph - N/A   Clear
2:00 PM 78.8 °F 41.0 °F 26% 30.27 in - NW 6.9 mph 18.4 mph N/A   Clear
2:30 PM 78.8 °F 41.0 °F 26% 30.27 in - WNW 9.2 mph - N/A   Clear
3:00 PM 78.8 °F 41.0 °F 26% 30.27 in - West 9.2 mph - N/A   Clear
3:30 PM 78.8 °F 41.0 °F 26% 30.24 in - West 10.4 mph - N/A   Clear
4:00 PM 78.8 °F 41.0 °F 26% 30.24 in - NW 11.5 mph - N/A   Clear
4:30 PM 78.8 °F 41.0 °F 26% 30.24 in - WNW 10.4 mph - N/A   Clear
5:00 PM 78.8 °F 41.0 °F 26% 30.21 in 6.2 mi NW 10.4 mph - N/A   Partly Cloudy
5:30 PM 78.8 °F 39.2 °F 24% 30.21 in 6.2 mi WNW 11.5 mph - N/A   Partly Cloudy
6:00 PM 78.8 °F 41.0 °F 26% 30.21 in 6.2 mi NNW 9.2 mph - N/A   Partly Cloudy
6:30 PM 77.0 °F 39.2 °F 26% 30.21 in 6.2 mi WNW 6.9 mph - N/A   Partly Cloudy
7:00 PM 77.0 °F 41.0 °F 28% 30.21 in 6.2 mi NW 9.2 mph - N/A   Partly Cloudy
7:30 PM 75.2 °F 41.0 °F 29% 30.21 in 6.2 mi NNW 6.9 mph - N/A   Partly Cloudy
8:00 PM 73.4 °F 39.2 °F 29% 30.21 in 6.2 mi NNW 13.8 mph - N/A   Partly Cloudy
8:30 PM 71.6 °F 39.2 °F 31% 30.21 in 6.2 mi NNW 10.4 mph - N/A   Partly Cloudy
9:00 PM 69.8 °F 41.0 °F 35% 30.21 in 6.2 mi North 13.8 mph - N/A   Partly Cloudy
9:30 PM 62.6 °F 51.8 °F 68% 30.24 in - NE 18.4 mph - N/A   Clear
10:00 PM 60.8 °F 51.8 °F 72% 30.24 in - NE 13.8 mph - N/A   Clear
10:30 PM 59.0 °F 51.8 °F 77% 30.27 in - NE 10.4 mph - N/A   Clear
11:00 PM 57.2 °F 50.0 °F 77% 30.27 in - NE 12.7 mph - N/A   Clear